Temp
13 14 14 14 15 15 15 16 16 16 16 17 17 17 18 18 18 19 20 21 20 20 19 19 19 19 17 17 18 19 18 20 21 21 19 18 19 17 18 19 21 20 18 16 17
13 13 13 14 14 15 15 16 16 16 16 16 17 18 18 18 18 19 20 21 20 20 20 20 19 19 17 18 19 19 18 21 23 21 20 19 17 17 18 18 18 17 17 16 17
13 13 13 13 14 14 14 15 16 16 16 16 17 17 18 18 18 20 20 21 20 20 20 19 19 18 18 19 19 19 19 22 22 21 20 19 17 17 18 18 19 16 16 17 17
13 13 13 13 13 14 14 14 15 16 16 16 16 17 17 17 19 20 21 20 20 19 19 19 19 19 18 18 20 19 22 22 22 21 19 19 17 18 18 18 18 18 18 17 17
12 13 13 13 13 14 14 15 15 15 16 16 16 17 17 17 20 20 21 20 19 19 19 19 18 18 17 18 20 20 21 22 23 23 21 19 19 19 18 17 17 17 17 17 17
12 12 13 13 14 14 14 14 15 15 15 16 16 16 16 16 20 20 20 20 19 19 19 19 19 19 19 20 20 21 22 22 23 22 19 20 19 20 17 17 17 17 17 17 18
12 12 13 13 13 14 14 15 15 16 15 15 16 16 16 19 20 20 19 19 19 19 19 19 19 20 19 20 21 22 21 21 20 20 20 20 19 20 18 18 18 17 17 17 18
12 12 12 13 13 14 15 15 16 15 15 15 16 15 18 19 20 20 19 19 18 18 19 19 19 19 20 21 21 21 20 21 20 20 20 20 20 20 19 18 18 19 18 18 18
11 12 12 13 13 14 15 16 16 15 15 15 15 15 18 19 19 20 20 20 18 18 18 19 19 20 20 19 18 18 20 22 21 21 20 19 19 20 18 19 19 19 19 18 18
12 12 12 13 14 15 15 15 15 15 14 15 14 14 19 19 20 20 20 19 19 18 18 18 19 16 15 16 17 20 20 21 22 20 21 19 19 19 18 18 18 19 19 19 19
12 12 13 14 14 15 15 15 14 14 14 17 17 17 19 20 21 21 21 19 18 18 16 18 15 15 17 18 19 21 20 21 21 23 22 19 19 19 18 18 19 19 20 19 19
12 13 14 14 15 15 15 15 14 14 14 17 17 17 19 20 21 21 21 20 19 16 16 16 15 17 18 18 20 20 20 20 22 22 20 18 18 18 17 18 19 19 20 20 19
13 14 15 15 15 16 16 15 16 16 13 17 18 18 20 21 21 21 21 20 18 17 17 16 19 19 19 20 20 20 18 20 21 20 19 19 19 19 18 18 18 18 19 20 20
14 15 15 15 16 16 16 16 16 17 11 17 17 20 21 21 21 21 22 22 20 18 17 18 20 20 19 20 19 19 19 21 21 20 20 20 18 17 19 19 19 18 19 19 20
14 15 16 16 16 16 16 16 17 17 14 19 19 21 21 21 21 21 22 22 19 19 18 18 19 19 19 20 19 19 19 20 21 20 20 20 19 18 17 16 17 18 19 19 20
15 15 15 15 16 16 16 16 17 12 15 17 19 20 19 20 21 21 22 22 21 19 19 20 21 19 19 20 20 21 19 15 14 15 17 20 19 19 17 18 18 19 19 19 19
16 16 16 16 15 16 16 17 12 11 15 15 15 17 18 19 19 19 16 14 15 16 18 18 19 17 19 21 20 19 16 15 16 16 17 16 19 18 18 19 18 18 19 19 20
16 16 15 16 16 16 16 12 11 14 14 15 15 15 15 15 15 15 14 13 14 14 13 16 17 16 17 17 19 18 17 15 18 15 17 17 18 18 18 19 18 18 20 20 20
17 16 16 17 17 16 17 9 11 12 13 14 14 14 14 15 15 15 13 12 14 12 15 15 16 16 17 16 16 18 15 15 13 14 16 16 17 18 18 18 18 17 18 19 19
17 17 16 17 17 17 11 11 13 13 13 13 13 13 13 13 15 13 13 14 13 13 13 14 15 15 15 16 16 15 15 16 13 17 18 16 15 14 15 15 16 16 16 16 17
17 17 16 17 17 16 9 12 13 13 13 13 12 12 12 12 12 12 11 15 13 14 12 12 12 15 13 12 11 12 12 11 11 11 14 14 14 16 13 13 14 15 15 15 17
16 11 16 17 13 7 7 10 12 10 12 11 12 10 11 9 9 11 11 11 12 13 13 11 9 9 12 12 12 12 11 9 12 14 9 11 13 13 13 13 13 14 14 15 18
15 15 14 17 9 6 10 10 11 9 9 10 10 10 9 8 10 10 11 12 11 12 12 13 9 9 12 12 11 11 11 9 7 7 10 13 13 14 12 12 12 12 14 14 15
15 9 14 13 10 8 9 8 10 11 9 10 8 9 9 7 6 8 10 11 11 11 12 12 8 10 9 10 9 10 11 11 9 10 9 10 13 11 11 12 11 11 12 13 13
14 9 9 6 8 7 7 8 9 8 10 9 8 7 8 7 7 7 8 9 11 10 10 7 8 9 9 10 11 11 11 12 12 12 13 10 12 11 10 11 10 10 11 11 12
13 12 11 8 9 7 5 8 8 9 9 8 8 8 6 6 8 8 8 7 8 8 8 6 7 9 9 9 10 10 10 11 12 13 12 12 10 9 11 11 10 11 11 10 11
13 13 13 7 7 7 7 9 9 9 10 10 9 7 7 8 9 9 9 8 8 8 7 6 5 5 8 7 9 9 10 10 11 11 11 11 10 9 9 10 9 10 11 10 10
Height
1508 1505 1503 1501 1499 1497 1495 1493 1491 1489 1488 1487 1486 1485 1484 1484 1483 1483 1482 1484 1487 1490 1494 1498 1501 1504 1507 1509 1510 1510 1514 1512 1508 1507 1512 1511 1506 1498 1516 1516 1516 1518 1518 1524 1529
1506 1503 1500 1498 1497 1495 1493 1491 1490 1488 1486 1485 1484 1482 1482 1481 1481 1479 1480 1480 1484 1488 1492 1495 1499 1503 1508 1509 1510 1510 1512 1509 1503 1506 1507 1510 1509 1509 1515 1517 1519 1520 1521 1527 1532
1503 1501 1498 1496 1494 1492 1491 1489 1487 1486 1485 1483 1482 1481 1480 1480 1479 1477 1476 1477 1482 1487 1493 1497 1501 1504 1507 1508 1509 1509 1511 1503 1504 1504 1507 1508 1509 1510 1515 1517 1518 1521 1524 1529 1534
1501 1498 1496 1493 1491 1490 1488 1487 1485 1484 1483 1481 1481 1479 1479 1479 1481 1476 1474 1477 1482 1487 1493 1496 1501 1504 1507 1508 1507 1509 1503 1504 1504 1505 1506 1509 1511 1515 1514 1516 1518 1523 1523 1529 1534
1499 1496 1494 1491 1488 1487 1485 1484 1482 1481 1481 1480 1479 1479 1478 1478 1477 1477 1476 1479 1483 1487 1491 1494 1498 1503 1506 1506 1506 1507 1503 1501 1500 1504 1505 1507 1511 1514 1517 1516 1519 1526 1529 1533 1537
1496 1494 1491 1488 1486 1484 1482 1481 1480 1479 1478 1478 1477 1477 1477 1478 1476 1478 1479 1480 1483 1487 1491 1494 1498 1502 1504 1505 1505 1503 1502 1499 1498 1500 1504 1507 1512 1513 1519 1518 1523 1527 1529 1534 1538
1493 1490 1488 1485 1482 1480 1478 1478 1476 1476 1476 1476 1475 1476 1476 1476 1476 1478 1480 1482 1486 1489 1491 1495 1498 1502 1503 1504 1503 1500 1502 1499 1501 1502 1505 1508 1517 1514 1516 1518 1524 1528 1530 1535 1539
1491 1487 1484 1482 1479 1477 1475 1474 1474 1474 1474 1475 1474 1476 1474 1474 1475 1478 1480 1483 1486 1490 1494 1498 1499 1503 1504 1504 1501 1502 1503 1511 1505 1504 1506 1509 1518 1512 1515 1518 1520 1524 1529 1533 1539
1489 1485 1482 1479 1476 1474 1473 1471 1471 1472 1473 1474 1474 1475 1473 1474 1475 1477 1480 1482 1485 1490 1495 1498 1501 1504 1504 1507 1512 1510 1516 1509 1507 1502 1505 1512 1516 1509 1513 1514 1518 1522 1527 1532 1536
1486 1482 1478 1476 1473 1472 1471 1470 1470 1471 1473 1474 1474 1477 1472 1473 1473 1475 1479 1483 1485 1490 1496 1498 1501 1505 1508 1513 1528 1515 1516 1511 1509 1507 1505 1511 1515 1511 1514 1514 1515 1523 1528 1532 1535
1483 1479 1476 1473 1471 1470 1471 1471 1475 1475 1474 1471 1472 1470 1469 1471 1472 1475 1478 1482 1486 1490 1495 1496 1504 1510 1507 1505 1503 1505 1512 1513 1507 1502 1505 1510 1512 1511 1514 1516 1519 1521 1525 1531 1534
1481 1476 1474 1472 1471 1472 1471 1473 1474 1476 1472 1468 1468 1468 1468 1470 1472 1474 1477 1482 1486 1492 1493 1500 1506 1499 1499 1501 1503 1505 1513 1514 1505 1503 1506 1510 1513 1509 1513 1515 1518 1522 1525 1529 1534
1478 1475 1473 1473 1472 1473 1473 1473 1472 1471 1472 1467 1465 1467 1467 1469 1470 1473 1477 1479 1482 1490 1493 1500 1494 1493 1498 1500 1503 1506 1515 1513 1511 1506 1507 1510 1516 1512 1514 1517 1519 1522 1524 1528 1531
1476 1474 1474 1473 1476 1474 1473 1473 1472 1471 1482 1469 1465 1465 1467 1467 1470 1471 1475 1477 1481 1488 1491 1492 1488 1491 1496 1498 1502 1512 1503 1504 1507 1515 1525 1509 1535 1518 1513 1517 1519 1519 1520 1524 1527
1475 1474 1474 1474 1475 1475 1475 1472 1472 1472 1495 1467 1464 1465 1466 1469 1469 1472 1474 1475 1480 1483 1487 1493 1490 1492 1496 1495 1496 1505 1499 1504 1506 1514 1518 1517 1529 1517 1514 1519 1515 1511 1513 1517 1520
1476 1475 1474 1475 1475 1474 1472 1471 1472 1485 1487 1471 1464 1464 1466 1468 1468 1470 1472 1474 1477 1481 1483 1485 1484 1487 1487 1487 1490 1493 1503 1514 1520 1527 1541 1518 1525 1524 1520 1515 1508 1507 1508 1509 1513
1479 1478 1476 1476 1475 1473 1471 1471 1486 1497 1478 1480 1476 1469 1468 1472 1472 1473 1482 1487 1493 1499 1495 1490 1491 1488 1487 1488 1490 1496 1513 1543 1544 1547 1545 1528 1526 1534 1517 1509 1508 1501 1499 1503 1509
1482 1481 1478 1475 1473 1471 1469 1473 1498 1487 1485 1478 1477 1474 1481 1480 1482 1485 1489 1497 1493 1496 1507 1507 1512 1496 1492 1494 1496 1498 1506 1533 1539 1554 1539 1524 1531 1529 1516 1511 1504 1495 1494 1498 1503
1483 1481 1478 1475 1473 1470 1470 1493 1500 1493 1486 1484 1480 1484 1486 1482 1484 1489 1500 1503 1499 1499 1502 1509 1509 1498 1496 1496 1497 1499 1516 1511 1533 1539 1537 1534 1525 1516 1510 1505 1501 1500 1499 1501 1501
1483 1481 1479 1477 1474 1472 1476 1494 1493 1491 1487 1484 1489 1490 1496 1492 1490 1496 1503 1502 1502 1498 1497 1504 1514 1506 1501 1498 1498 1501 1508 1520 1527 1538 1536 1541 1542 1545 1527 1520 1512 1505 1504 1501 1498
1484 1482 1482 1479 1477 1475 1495 1496 1495 1492 1489 1488 1492 1495 1498 1499 1498 1503 1515 1503 1503 1500 1498 1504 1510 1514 1510 1526 1524 1516 1522 1526 1531 1540 1543 1556 1552 1535 1535 1527 1521 1513 1505 1498 1491
1486 1488 1484 1480 1483 1493 1502 1499 1499 1498 1493 1493 1494 1498 1501 1504 1509 1508 1515 1513 1505 1502 1507 1509 1521 1538 1532 1526 1523 1521 1527 1533 1533 1537 1551 1548 1552 1535 1533 1528 1524 1518 1510 1499 1492
1489 1490 1487 1482 1499 1505 1503 1503 1503 1501 1502 1500 1503 1503 1504 1510 1513 1513 1513 1512 1507 1506 1510 1509 1529 1543 1539 1534 1528 1532 1531 1533 1538 1543 1549 1544 1550 1535 1534 1529 1526 1522 1516 1508 1503
1493 1497 1494 1491 1498 1502 1505 1509 1507 1506 1507 1507 1508 1506 1508 1514 1514 1518 1518 1514 1512 1510 1509 1509 1529 1530 1543 1538 1539 1540 1535 1530 1535 1542 1551 1547 1539 1536 1536 1533 1529 1525 1522 1518 1513
1498 1504 1504 1509 1506 1506 1506 1511 1511 1513 1510 1510 1511 1515 1515 1521 1522 1525 1522 1519 1514 1514 1512 1517 1535 1534 1537 1536 1536 1537 1536 1532 1531 1533 1535 1544 1538 1536 1536 1535 1533 1531 1526 1521 1520
1501 1504 1506 1508 1509 1510 1511 1516 1515 1515 1514 1516 1517 1519 1518 1523 1525 1526 1524 1525 1526 1521 1521 1523 1538 1535 1540 1539 1539 1539 1537 1534 1532 1529 1530 1532 1539 1535 1536 1535 1531 1530 1529 1527 1524
1506 1507 1507 1512 1513 1515 1517 1516 1516 1516 1518 1518 1518 1520 1521 1522 1523 1524 1525 1525 1526 1526 1527 1529 1536 1544 1544 1545 1542 1545 1536 1536 1533 1530 1531 1537 1536 1535 1534 1535 1534 1532 1531 1531 1529
Wind_Speed
19 19 18 16 15 15 15 15 15 13 13 12 11 10 10 10 11 12 13 8 17 22 21 19 15 13 15 11 5 3 1 1 1 2 4 2 2 6 9 8 3 4 18 27 41
19 19 18 17 16 15 14 14 14 14 13 13 12 10 9 9 11 15 8 14 21 23 26 25 20 17 8 5 4 2 1 2 1 5 5 9 9 5 7 9 7 19 28 37 38
20 20 19 18 16 16 15 14 14 14 13 14 11 9 8 6 9 0 2 16 23 22 24 22 17 16 4 4 5 3 3 2 5 11 13 9 5 7 4 3 7 28 35 39 38
20 20 19 18 17 16 15 15 15 13 12 12 10 6 5 3 1 2 2 19 24 23 26 20 21 11 4 4 5 2 8 9 5 10 9 8 16 9 8 7 8 33 40 40 38
21 21 20 19 18 17 15 14 14 13 10 11 7 6 5 3 2 3 8 22 25 27 26 23 26 8 5 5 3 4 8 12 15 11 9 14 10 5 11 10 21 30 35 37 36
22 22 21 20 18 17 16 14 13 12 9 8 7 4 2 1 5 6 6 20 25 25 25 23 18 11 8 2 4 4 10 17 13 6 14 10 8 8 10 16 28 30 32 35 36
23 22 21 21 19 17 15 15 12 10 8 6 4 3 4 4 5 7 7 11 21 22 24 22 7 11 2 2 4 5 3 4 8 7 5 19 6 4 18 20 28 31 29 33 33
22 21 21 20 20 18 14 12 11 6 7 5 2 4 3 8 7 11 10 10 16 18 17 19 11 7 2 5 5 3 3 3 3 4 8 3 3 7 16 21 26 31 29 32 31
22 21 20 19 18 16 11 8 6 5 4 5 3 3 2 9 10 12 9 8 12 14 12 14 14 3 1 2 4 5 3 2 3 3 5 1 1 3 14 21 25 28 32 31 31
22 21 20 18 14 10 5 4 2 4 6 4 4 2 3 4 5 9 15 9 11 15 9 7 6 3 3 3 4 3 4 2 2 5 1 6 4 4 12 7 16 23 27 31 32
23 21 19 15 9 4 4 4 4 2 5 5 2 4 2 5 9 12 17 16 15 13 4 5 4 6 7 6 4 3 4 0 2 3 3 3 4 8 14 11 13 21 27 30 33
22 19 15 8 4 8 14 7 7 5 7 7 10 15 10 2 4 13 15 10 8 5 5 4 5 7 5 4 4 2 5 2 3 0 4 2 2 3 11 7 8 18 22 28 31
19 15 7 5 6 6 8 15 11 3 2 5 5 8 3 7 4 14 18 10 7 5 5 6 5 7 5 4 3 1 5 3 3 4 3 4 3 3 7 6 10 9 20 24 31
15 11 3 3 3 5 7 9 8 4 4 2 4 3 6 4 2 8 15 9 3 8 9 4 2 7 4 3 5 1 7 5 2 2 1 2 3 3 7 8 11 18 19 26 28
12 7 1 2 2 4 8 9 6 3 4 1 3 5 7 5 8 4 10 5 8 5 5 6 6 4 3 6 7 6 6 6 4 3 3 3 4 4 3 7 12 24 27 26 34
12 8 3 1 3 9 9 6 3 5 3 5 3 2 4 3 2 6 5 6 5 5 3 3 1 3 7 6 8 5 5 8 5 3 2 2 4 5 3 4 4 18 26 31 33
12 12 9 6 7 9 13 0 4 5 5 7 4 5 3 3 4 5 5 8 3 5 1 4 3 5 5 2 3 5 6 2 3 2 5 5 4 2 7 10 10 16 26 32 32
9 12 13 8 10 12 4 5 8 3 3 4 4 3 5 5 8 7 4 5 6 5 4 4 3 5 9 3 2 4 7 5 5 5 4 2 6 1 5 14 21 29 16 26 30
8 10 18 11 13 10 5 6 1 3 5 6 3 7 6 5 5 6 4 3 3 4 4 5 0 5 4 4 2 3 4 3 7 2 4 1 6 4 20 19 29 29 26 11 24
8 5 22 14 14 8 7 4 3 4 6 3 4 3 4 7 4 5 5 5 7 7 3 1 5 3 5 6 8 7 1 3 4 4 3 3 4 4 16 17 19 24 27 25 16
6 3 22 12 11 13 4 3 4 14 8 6 4 5 4 3 5 4 5 1 9 6 11 2 4 4 5 8 5 6 5 6 5 3 5 4 2 5 8 12 14 23 32 33 20
9 3 20 8 8 4 3 4 8 11 18 7 4 5 5 7 6 4 4 4 21 3 4 4 5 5 2 5 5 4 3 3 4 3 2 3 3 7 7 15 20 24 29 35 22
4 11 19 4 4 3 4 5 8 10 7 7 7 7 5 4 5 4 4 8 20 6 2 1 3 4 4 5 5 6 5 3 4 3 1 4 4 6 14 19 24 24 27 34 31
4 4 10 22 8 5 3 4 4 13 6 7 6 5 5 8 8 3 4 5 13 13 13 6 4 3 6 4 3 4 4 4 3 3 5 3 1 5 9 11 21 27 26 27 33
6 3 3 3 8 6 4 3 4 6 7 16 5 7 3 4 4 4 5 6 9 16 7 5 4 3 4 5 3 3 2 3 3 1 3 7 4 1 4 7 13 19 28 28 28
4 4 5 4 3 6 5 4 5 4 5 5 5 4 6 5 2 2 2 4 1 7 4 4 3 3 2 3 3 3 6 7 5 3 4 2 3 3 2 8 19 23 26 28 27
10 7 3 5 3 3 2 1 2 2 7 6 3 3 5 2 3 1 2 1 1 2 3 3 4 3 3 2 1 2 0 3 2 2 2 3 1 6 5 11 15 17 19 22 24
Wind_Direction
340 339 335 334 333 335 334 332 330 326 325 325 314 304 299 290 286 273 260 231 197 178 175 174 166 164 169 189 202 255 359 69 128 164 120 153 79 42 14 141 74 227 164 161 157
335 332 331 330 328 328 329 327 327 324 320 325 318 302 306 298 290 281 248 195 185 181 181 180 168 163 174 199 212 265 165 246 67 121 118 102 82 56 17 305 58 99 138 153 159
334 331 330 327 325 324 325 323 322 322 317 323 322 303 305 316 307 292 274 186 176 178 187 180 170 155 151 177 211 211 229 276 133 135 137 130 131 124 125 268 171 145 148 159 162
335 332 329 327 323 319 321 321 317 318 314 320 319 311 312 325 138 2 216 176 171 170 169 167 166 160 156 210 201 248 245 253 195 165 141 164 136 149 163 209 192 168 162 164 168
332 330 328 325 321 316 313 315 315 313 309 315 307 303 303 270 251 80 125 161 165 164 171 169 166 153 164 205 210 224 268 271 256 244 147 137 141 146 178 142 156 156 164 169 171
329 327 327 323 319 316 311 309 308 307 302 309 303 287 249 228 139 143 146 174 175 172 172 175 183 166 171 236 191 225 244 274 293 203 153 136 148 134 172 142 157 162 169 174 175
328 328 326 323 318 312 309 306 299 297 291 296 287 252 247 129 146 147 132 178 186 186 179 179 170 186 134 261 279 272 300 17 63 106 131 120 132 207 161 160 165 168 172 178 184
335 334 331 325 320 314 312 304 295 273 276 272 247 248 232 165 163 172 156 166 191 192 198 182 169 178 262 310 331 18 49 45 197 136 166 34 151 171 164 167 169 171 170 184 193
339 337 334 328 322 317 316 307 287 251 242 234 217 240 219 197 197 187 181 153 149 178 167 184 200 222 199 88 17 5 138 58 120 180 148 183 195 260 168 169 168 175 178 180 193
337 337 335 329 322 327 334 351 96 167 177 208 237 274 175 154 185 186 184 168 139 140 149 145 171 115 47 88 186 174 95 18 66 184 128 178 246 123 182 194 176 179 179 185 193
336 338 339 334 325 32 13 111 50 72 232 225 297 288 345 22 161 168 175 169 143 143 126 182 110 188 190 191 179 131 103 50 246 256 229 255 200 187 185 197 184 188 187 188 197
335 340 348 352 59 69 72 65 22 276 306 258 248 264 254 296 134 168 174 146 146 140 123 62 204 205 184 189 182 165 113 260 294 81 133 40 21 187 166 199 180 188 196 194 193
334 345 20 49 74 65 58 25 11 359 200 282 222 250 237 163 157 164 173 168 135 127 169 149 214 171 180 181 146 147 138 197 228 16 49 107 33 160 169 174 233 222 216 202 197
339 351 107 60 60 47 38 360 358 344 51 272 214 200 185 174 105 164 174 154 128 169 158 181 167 158 163 203 139 210 195 175 238 72 281 114 292 270 194 200 222 248 224 209 205
350 1 147 70 68 20 344 310 318 307 75 160 164 146 157 170 138 89 170 156 147 153 115 232 153 167 167 202 166 211 163 168 187 150 71 330 67 252 156 221 216 226 230 220 211
15 25 47 27 331 337 337 317 243 45 69 341 7 126 86 36 59 110 97 79 106 92 61 193 134 122 200 202 186 115 84 41 48 82 51 221 125 314 314 300 312 226 224 221 215
42 44 40 20 336 331 335 60 42 76 330 344 340 2 97 32 49 62 64 38 60 92 118 14 19 332 35 132 93 92 83 31 45 61 198 305 74 216 308 350 309 270 223 218 216
9 11 8 358 336 330 342 65 63 320 316 319 1 355 77 0 15 26 62 49 14 43 84 131 353 7 333 37 153 155 156 150 158 171 190 344 158 89 355 347 358 16 257 224 210
16 34 18 359 358 7 92 56 137 316 302 331 341 56 21 12 101 76 50 39 42 22 126 132 122 332 39 23 43 170 73 184 108 19 88 255 339 308 351 359 2 4 15 255 219
355 359 18 11 7 32 68 104 47 340 318 24 89 43 60 354 67 70 23 338 344 28 173 88 92 17 314 19 26 94 92 74 14 129 146 30 73 327 343 341 339 348 349 338 312
1 21 0 358 42 56 84 57 33 352 23 34 38 54 83 17 51 64 352 33 358 356 60 72 72 331 38 19 340 8 20 39 108 94 151 127 263 19 332 337 338 342 343 341 331
31 33 2 39 47 30 43 346 21 351 19 24 78 60 51 28 39 82 99 353 339 324 46 360 106 68 74 293 347 52 60 102 121 204 62 120 215 44 1 349 357 354 0 15 26
81 34 17 119 86 18 17 22 48 18 12 16 28 32 34 46 87 60 56 348 15 45 86 8 36 87 17 331 2 46 337 91 90 81 96 129 215 46 9 9 2 3 13 27 41
55 28 24 58 66 107 78 13 24 29 54 57 21 51 45 29 16 76 29 345 6 28 49 85 74 119 172 136 143 73 341 354 96 103 156 198 242 336 11 9 1 5 15 31 40
55 40 30 0 15 52 74 36 18 15 26 27 39 44 53 65 33 38 5 350 12 6 31 81 101 73 76 86 90 145 155 320 339 163 149 166 179 309 347 11 17 17 26 30 32
87 112 84 67 33 43 12 11 39 358 38 2 69 51 40 90 113 155 19 29 7 340 39 7 125 117 101 43 57 190 219 219 239 281 283 148 189 260 21 49 41 36 28 26 24
81 82 68 17 31 65 299 173 33 88 40 61 53 85 52 84 168 191 187 86 34 12 36 60 121 94 163 8 356 24 331 183 218 274 307 251 123 348 8 23 30 33 36 27 18